GW2887 Weather Reports


time (UTC)temp
C
wind
direction
speed
KPH
gust
KPH
rain 1hr
cm
rain 24hr
cm
rain mn
cm
humidity
%
barometer
mb
20260506024555 -17 0.0 0.0 0.00 0.48 0.00 1003.9
20260506023051 -17 0.0 0.0 0.00 0.48 0.00 1003.8
20260506021546 -17 0.0 0.0 0.00 0.48 0.00 1003.8
20260506020041 -17 0.0 0.0 0.00 0.48 0.00 1003.7
20260506014538 -17 0.0 0.0 0.00 0.48 0.00 1003.6
20260506013040 -17 0.0 0.0 0.00 0.48 0.00 1003.5
20260506011529 -17 0.0 0.0 0.00 0.48 0.00 1003.3
20260506010024 -17 0.0 0.0 0.00 0.48 0.00 1003.3
20260506004520 -17 0.0 0.0 0.00 0.48 0.00 1003.2
20260506003016 -17 0.0 0.0 0.00 0.48 0.00 1003.1
20260506001512 -17 0.0 0.0 0.00 0.48 0.00 1003.2
20260506000006 -17 0.0 0.0 0.00 0.48 0.00 1002.9
20260505234502 -17 0.0 0.0 0.00 0.48 0.00 1002.9
20260505233058 -17 0.0 0.0 0.00 0.48 0.00 1002.9
20260505231554 -17 0.0 0.0 0.00 0.48 0.00 1002.8
20260505230051 -17 0.0 0.0 0.00 0.48 0.00 1002.8
20260505224545 -17 0.0 0.0 0.00 0.48 0.00 1002.8
20260505223057 -17 0.0 0.0 0.00 0.48 0.00 1002.7
20260505221544 -17 0.0 0.0 0.00 0.48 0.00 1002.6
20260505220032 -17 0.0 0.0 0.00 0.48 0.00 1002.7
20260505214530 -17 0.0 0.0 0.00 0.48 0.48 1002.6
20260505213023 -17 0.0 0.0 0.00 0.48 0.48 1002.4
20260505211519 -17 0.0 0.0 0.00 0.48 0.48 1002.5
20260505210017 -17 0.0 0.0 0.00 0.48 0.48 1002.4
20260505204517 -17 0.0 0.0 0.00 0.48 0.48 1002.3
20260505203005 -17 0.0 0.0 0.00 0.48 0.48 1002.3
20260505201501 -17 0.0 0.0 0.00 0.48 0.48 1002.2
20260505200105 -17 0.0 0.0 0.00 0.48 0.48 1002.1
20260505194602 -17 0.0 0.0 0.00 0.48 0.48 1002.1
20260505193048 -17 0.0 0.0 0.00 0.48 0.48 1002.1
20260505191544 -17 0.0 0.0 0.00 0.48 0.48 1002.0
20260505190046 -17 0.0 0.0 0.00 0.48 0.48 1001.8
20260505184535 -17 0.0 0.0 0.00 0.48 0.48 1001.7
20260505183042 -17 0.0 0.0 0.00 0.48 0.48 1001.6
20260505181527 -17 0.0 0.0 0.00 0.48 0.48 1001.5
20260505180022 -17 0.0 0.0 0.00 0.48 0.48 1001.5
20260505174518 1 300 8.0 0.0 0.00 0.48 0.48 89 1001.4
20260505173021 1 294 8.0 0.0 0.00 0.48 0.48 89 1001.4
20260505171516 2 257 8.0 0.0 0.03 0.48 0.48 89 1001.2
20260505170014 2 254 9.7 0.0 0.13 0.48 0.48 88 1001.2
20260505164514 2 253 8.0 0.0 0.13 0.48 0.48 87 1001.1
20260505163014 2 262 11.3 0.0 0.10 0.46 0.46 88 1001.0
20260505161513 2 273 6.4 0.0 0.10 0.46 0.46 87 1000.9
20260505153059 -17 0.0 0.0 0.05 0.36 0.36 1000.9
20260505151558 -17 0.0 0.0 0.05 0.36 0.36 1000.8
20260505124524 2 221 3.2 0.0 0.05 0.30 0.30 91 1000.0
20260505123022 2 127 1.6 0.0 0.05 0.28 0.28 92 999.8
20260505121522 1 146 1.6 0.0 0.00 0.23 0.23 91 999.7
20260505120019 1 101 3.2 0.0 0.00 0.23 0.23 90 999.7
20260505114517 2 121 3.2 0.0 0.00 0.23 0.23 85 999.6
20260505113015 3 202 1.6 0.0 0.00 0.23 0.23 85 999.3
20260505111514 3 108 6.4 0.0 0.00 0.23 0.23 83 999.2
20260505101513 2 349 8.0 0.0 0.03 0.23 0.23 84 998.8
20260505100006 2 360 4.8 0.0 0.05 0.23 0.23 86 998.7
20260505094514 2 329 6.4 0.0 0.05 0.23 0.23 80 998.6
20260505093003 3 281 6.4 0.0 0.08 0.23 0.23 80 998.4
20260505091501 3 298 6.4 0.0 0.10 0.23 0.23 75 998.3
20260505090059 3 301 4.8 0.0 0.10 0.20 0.20 80 998.3
20260505084557 2 260 8.0 0.0 0.10 0.20 0.18 79 998.3
20260505083056 2 300 6.4 0.0 0.08 0.15 0.15 82 998.2
20260505081554 2 253 6.4 0.0 0.08 0.15 0.13 84 998.2
20260505080057 2 243 9.7 0.0 0.08 0.13 0.10 86 998.2
20260505074548 2 267 8.0 0.0 0.08 0.15 0.08 87 998.1
20260505073051 1 296 6.4 0.0 0.05 0.13 0.05 90 998.1
20260505071541 1 275 1.6 0.0 0.05 0.10 0.05 94 998.0
20260505070049 1 287 3.2 0.0 0.03 0.08 0.03 95 997.9
20260505064536 0 276 4.8 0.0 0.00 0.10 0.00 95 997.8
20260505063034 0 314 3.2 0.0 0.00 0.10 0.00 96 997.8
20260505061539 0 323 3.2 0.0 0.00 0.10 0.00 97 997.7
20260505060030 0 297 4.8 0.0 0.00 0.10 0.00 97 997.7
20260505054535 0 307 4.8 0.0 0.00 0.13 0.00 97 997.6
20260505053030 0 308 1.6 0.0 0.00 0.13 0.00 97 997.6
20260505051526 0 308 0.0 0.0 0.00 0.13 0.00 97 997.5
20260505041532 0 287 0.0 0.0 0.00 0.13 0.00 97 997.3
20260505040032 0 1 0.0 0.0 0.00 0.13 0.00 97 997.2
20260505034523 0 353 0.0 0.0 0.00 0.13 0.00 97 997.2
20260505033020 0 339 0.0 0.0 0.00 0.13 0.00 97 997.2
20260505031533 0 300 0.0 0.0 0.00 0.13 0.00 97 997.2
20260505030015 0 273 0.0 0.0 0.00 0.13 0.00 97 997.2